155P/Shoemaker 3 (2019)

Japanese version
Home page
Updated on December 9, 2019

---------------------------------------------------------------------

* Profile

* Pictures

* Orbital Elements

Epoch 2019 Nov. 13.0 TT = JDT 2458800.5
T 2019 Nov. 15.02010 TT                                 MPCW
q   1.8018458            (2000.0)            P               Q
n   0.05825934     Peri.   14.66704     -0.37085597     -0.92209063
a   6.5901054      Node    97.19787     +0.84044392     -0.38386370
e   0.7265832      Incl.    6.39592     +0.39512006     -0.04896460
P  16.9
From 1021 observations 1986 Jan. 10-2019 Nov. 1, mean residual 0".7.
     Nongravitational parameters A1 = +0.01, A2 = -0.0808.

* Finding Charts

* Magnitudes Graph

        m1 = 5.0 + 5 log d + 35 log r(t - 28)

---------------------------------------------------------------------

The orbital elements are published on M.P.E.C. 2019-V116.
The charts are made with StellaNavigator Ver.10 (AstroArts).
The magnitudes graphs are made with Comet for Windows.

---------------------------------------------------------------------

Copyright(C) Seiichi Yoshida (comet@aerith.net). All rights reserved.